Hattiesburg, MS

12:00 PM CDT on June 29, 2017 (GMT -0500)
Chain Municipal

Weather History for KHBG - December, 2006

Change the Weather History Date:

Saturday, December 30, 2006

  Actual Average Record
Temperature  
Mean Temperature 64 °F 49 °F  
Max Temperature 70 °F 60 °F 80 °F (1951)
Min Temperature 60 °F 38 °F 14 °F (1983)
Degree Days  
Heating Degree Days 0 16  
Month to date heating degree days 441  
Since 1 July heating degree days 769  
Cooling Degree Days 0 0  
Month to date cooling degree days 12  
Year to date cooling degree days 2402  
Growing Degree Days 14 (Base 50)    
Moisture  
Dew Point 64 °F    
Average Humidity 91    
Maximum Humidity 96    
Minimum Humidity 81    
Precipitation  
Precipitation 1.98 in 0.14 in 2.15 in (2006)
Month to date precipitation 4.78  
Year to date precipitation 59.04  
Sea Level Pressure  
Sea Level Pressure 30.06 in    
Wind  
Wind Speed 10 mph (SE)    
Max Wind Speed 15 mph    
Max Gust Speed 18 mph    
Visibility 6 miles    
Events Rain , Thunderstorm    
T = Trace of Precipitation, MM = Missing Value Source: NWS Daily Summary

Daily Weather History Graph

Daily Weather History Graph

Search for Another Location

Airport or City:

Trip Planner

Search our weather history database for the weather conditions in past years. The results will help you decide how hot, cold, wet, or windy it might be!

Date:

Astronomy

Dec. 30, 2006 Rise Set
Actual Time 6:55 AM CST 5:03 PM CST
Civil Twilight 6:28 AM CST 5:30 PM CST
Nautical Twilight 5:58 AM CST 6:00 PM CST
Astronomical Twilight 5:28 AM CST 6:30 PM CST
Moon 1:32 PM CST (12/30) 2:56 AM CST (12/30)
Length of Visible Light 11h 02m
Length of Day
10h 08m
Waxing Gibbous, 83% of the Moon is Illuminated
Dec 30
Waxing Gibbous
Jan 3
Full
Jan 11
Last Quarter
Jan 18
New
Jan 25
First Quarter

Hourly Weather History & Observations

Time (CST) Temp. Dew Point Humidity Pressure Visibility Wind Dir Wind Speed Gust Speed Precip Events Conditions
12:53 AM 61.0 °F 57.0 °F 87% 30.16 in 10.0 mi ESE 9.2 mph - N/A   Scattered Clouds
1:53 AM 60.1 °F 55.9 °F 86% 30.15 in 10.0 mi ESE 9.2 mph - N/A   Overcast
2:53 AM 60.1 °F 55.9 °F 86% 30.14 in 10.0 mi ESE 8.1 mph - N/A   Clear
3:53 AM 61.0 °F 55.0 °F 81% 30.13 in 10.0 mi ESE 6.9 mph - N/A   Clear
4:53 AM 61.0 °F 55.9 °F 83% 30.09 in 10.0 mi ESE 9.2 mph - N/A   Scattered Clouds
5:06 AM 60.8 °F 55.4 °F 82% 30.10 in 10.0 mi ESE 10.4 mph - N/A   Mostly Cloudy
5:53 AM 62.1 °F 57.0 °F 84% 30.08 in 10.0 mi ESE 10.4 mph - N/A   Scattered Clouds
6:53 AM 62.1 °F 57.9 °F 86% 30.10 in 10.0 mi ESE 9.2 mph - N/A   Scattered Clouds
7:08 AM 62.6 °F 57.2 °F 82% 30.11 in 10.0 mi ESE 9.2 mph - N/A   Mostly Cloudy
7:53 AM 63.0 °F 59.0 °F 87% 30.10 in 10.0 mi ESE 11.5 mph - 0.00 in Rain Light Rain
8:13 AM 64.4 °F 59.0 °F 83% 30.13 in 10.0 mi SE 13.8 mph - 0.00 in Thunderstorm Mostly Cloudy
8:38 AM 64.4 °F 59.0 °F 83% 30.12 in 10.0 mi ESE 13.8 mph - 0.00 in   Overcast
8:49 AM 64.4 °F 60.8 °F 88% 30.13 in 5.0 mi SE 10.4 mph - 0.01 in Rain Rain
8:53 AM 64.0 °F 60.1 °F 87% 30.12 in 4.0 mi ESE 8.1 mph 18.4 mph 0.02 in Rain Rain
9:26 AM 64.4 °F 60.8 °F 88% 30.12 in 9.0 mi ESE 12.7 mph - 0.01 in Rain Light Rain
9:53 AM 64.0 °F 62.1 °F 93% 30.13 in 9.0 mi ESE 8.1 mph - 0.01 in   Mostly Cloudy
10:07 AM 64.4 °F 62.6 °F 94% 30.13 in 9.0 mi ESE 6.9 mph - N/A   Mostly Cloudy
10:53 AM 66.0 °F 62.1 °F 87% 30.11 in 10.0 mi ESE 12.7 mph - N/A   Mostly Cloudy
11:01 AM 66.2 °F 62.6 °F 88% 30.10 in 10.0 mi ESE 12.7 mph - N/A   Mostly Cloudy
11:24 AM 66.2 °F 62.6 °F 88% 30.08 in 10.0 mi ESE 10.4 mph - N/A   Mostly Cloudy
11:53 AM 66.9 °F 63.0 °F 87% 30.06 in 6.0 mi SE 4.6 mph - 0.01 in Rain Light Rain
12:53 PM 68.0 °F 64.0 °F 87% 30.04 in 9.0 mi ESE 9.2 mph - 0.01 in Rain Light Rain
1:37 PM 68.0 °F 66.2 °F 94% 30.03 in 2.5 mi SE 10.4 mph - 0.04 in Rain Light Rain
1:45 PM 68.0 °F 66.2 °F 94% 30.04 in 4.0 mi SE 9.2 mph - 0.06 in Rain Light Rain
1:50 PM 68.0 °F 66.2 °F 94% 30.03 in 2.5 mi SE 11.5 mph - 0.09 in Rain , Thunderstorm Heavy Rain
1:53 PM 68.0 °F 66.0 °F 93% 30.02 in 2.0 mi SE 8.1 mph - 0.09 in Rain , Thunderstorm Rain
2:04 PM 68.0 °F 66.2 °F 94% 30.03 in 3.0 mi SE 8.1 mph - 0.05 in Rain , Thunderstorm Light Rain
2:11 PM 68.0 °F 66.2 °F 94% 30.03 in 4.0 mi SE 6.9 mph - 0.05 in Rain Light Rain
2:53 PM 68.0 °F 66.0 °F 93% 30.03 in 5.0 mi SE 6.9 mph - 0.09 in Rain Light Rain
3:01 PM 68.0 °F 66.2 °F 94% 30.03 in 4.0 mi SE 6.9 mph - 0.01 in Rain , Thunderstorm Light Rain
3:31 PM 68.0 °F 66.2 °F 94% 30.03 in 2.0 mi SSE 10.4 mph - 0.08 in Rain , Thunderstorm Rain
3:40 PM 68.0 °F 66.2 °F 94% 30.02 in 4.0 mi SE 8.1 mph - 0.09 in Rain Light Rain
3:53 PM 68.0 °F 66.9 °F 96% 30.02 in 8.0 mi SE 8.1 mph - 0.09 in Rain Light Rain
4:09 PM 68.0 °F 66.2 °F 94% 30.03 in 6.0 mi SE 10.4 mph - 0.02 in Rain Light Rain
4:21 PM 68.0 °F 66.2 °F 94% 30.03 in 1.8 mi SE 9.2 mph - 0.11 in Rain , Thunderstorm Rain
4:31 PM 68.0 °F 66.2 °F 94% 30.04 in 2.0 mi SSE 9.2 mph - 0.14 in Rain , Thunderstorm Rain
4:40 PM 68.0 °F 66.2 °F 94% 30.04 in 3.0 mi SE 9.2 mph - 0.17 in Rain Heavy Rain
4:48 PM 68.0 °F 66.2 °F 94% 30.04 in 3.0 mi SSE 9.2 mph - 0.20 in Rain Rain
4:53 PM 68.0 °F 66.9 °F 96% 30.04 in 2.5 mi SSE 6.9 mph - 0.27 in Rain Heavy Rain
5:03 PM 68.0 °F 66.2 °F 94% 30.04 in 3.0 mi SE 9.2 mph - 0.04 in Rain Heavy Rain
5:25 PM 68.0 °F 66.2 °F 94% 30.04 in 4.0 mi SE 10.4 mph - 0.14 in Rain Light Rain
6:27 PM 68.0 °F 66.2 °F 94% 30.04 in 10.0 mi SE 9.2 mph - 0.00 in Rain Light Rain
6:44 PM 68.0 °F 66.2 °F 94% 30.04 in 8.0 mi SE 10.4 mph - 0.01 in Rain Rain
6:53 PM 68.0 °F 66.9 °F 96% 30.03 in 6.0 mi SE 12.7 mph - 0.03 in Rain Rain
7:19 PM 69.8 °F 66.2 °F 88% 30.03 in 7.0 mi SE 13.8 mph - 0.05 in Rain Rain
7:37 PM 69.8 °F 66.2 °F 88% 30.02 in 5.0 mi SE 15.0 mph - 0.10 in Rain Rain
7:53 PM 69.1 °F 66.9 °F 93% 30.02 in 5.0 mi SE 13.8 mph - 0.14 in Rain Rain
8:35 PM 69.8 °F 66.2 °F 88% 30.02 in 6.0 mi SE 15.0 mph - 0.14 in Rain Rain
8:53 PM 69.1 °F 66.9 °F 93% 30.02 in 6.0 mi SE 11.5 mph - 0.17 in Rain Rain
8:57 PM 69.8 °F 66.2 °F 88% 30.02 in 5.0 mi SE 13.8 mph - 0.01 in Rain Rain
9:06 PM 69.8 °F 66.2 °F 88% 30.02 in 5.0 mi SE 15.0 mph - 0.05 in Rain Rain
9:53 PM 69.1 °F 66.9 °F 93% 30.00 in 6.0 mi SE 10.4 mph - 0.11 in Rain Light Rain
10:24 PM 69.8 °F 68.0 °F 94% 30.01 in 2.0 mi SSE 10.4 mph - 0.18 in Rain Heavy Rain
10:47 PM 69.8 °F 68.0 °F 94% 30.02 in 1.8 mi SSW 11.5 mph - 0.43 in Rain Heavy Rain
10:53 PM 69.1 °F 68.0 °F 96% 30.01 in 1.8 mi South 8.1 mph - 0.48 in Rain Heavy Rain
11:02 PM 69.8 °F 66.2 °F 88% 29.99 in 2.0 mi SE 11.5 mph - 0.07 in Rain Heavy Rain
11:24 PM 69.8 °F 68.0 °F 94% 30.00 in 1.2 mi South 11.5 mph - 0.33 in Rain Heavy Rain
11:36 PM 69.8 °F 68.0 °F 94% 30.00 in 2.0 mi South 6.9 mph - 0.43 in Rain Rain
11:48 PM 69.8 °F 68.0 °F 94% 29.99 in 4.0 mi SSE 13.8 mph - 0.46 in Rain Light Rain
11:53 PM 70.0 °F 68.0 °F 93% 29.98 in 10.0 mi SSE 11.5 mph - 0.46 in Rain Light Rain